STARLINK-3958 (52535 NORAD) Tracking and Keplerian Element Data

This shows tracking and keplerian element data for the satellite.

Feedback or suggestion? Click here.




ElementValue
Catalog52535
NameSTARLINK-3958
Epoch Orbit970
Epoch Day192.91667824
Epoch Year2022
RAAN10.1431
Inclination53.2175
Eccentricity0.0001515
Argument of Perigee51.9642
Mean Anonmoly287.6234
Mean Motion15.11238591
Decay Rate-0.00719278
L11 52535U 22051C 22192.91667824 -.00719278 00000+0 -45435-1 0 9996
L22 52535 53.2175 10.1431 0001515 51.9642 287.6234 15.11238591 9708

Live tracking and technical data element details for STARLINK-3958 (NORAD 52535). STARLINK-3958 can be tracked NOW for your location showing map with azimuth and elevation plus other details from your city location.

Track the satellite on the map from your city or location and see movement details for azimuth, elevation, latitude, longitude, range, height, and movement on the map or in text.







IsCatalogInMostPopularTable: catalog: 52535, numindb: 8
Update: records affected: 1



GetName: 52535 STARLINK-3958

Hit Count: updated at: Sun, 14 Aug 2022 01:12:31 GMT